031  
ASUS42 KTAE 150316  
RWRTAE  
RWRTAE  
NORTH FLORIDA/SOUTH ALABAMA/SOUTHWEST GEORGIA WEATHER ROUNDUP  
NATIONAL WEATHER SERVICE TALLAHASSEE FLORIDA  
1100 PM EDT SUN AUG 14 2022  
 
NOTE: "FAIR" INDICATES FEW OR NO CLOUDS BELOW 12,000 FEET WITH NO  
SIGNIFICANT WEATHER AND/OR S TO VISIBILITY
.  
 
!FLZ017-115-028-034-025-150400   
..NORTH FLORIDA
 
 
 
CITY SKY/WX TMP DP RH WIND PRES REMARKS
 
TALL INTL ARPT PTCLDY 77 74 90 CALM 29.97S  
FSU LOVE BLDG N/A 81 72 74 W3 N/A  
APALACHICOLA PTCLDY 77 77 100 N5 29.97R  
PERRY NOT AVBL  
CROSS CITY CLEAR 78 75 91 CALM 29.97S  
JACKSONVILLE CLEAR 72 66 81 CALM 29.98S  

 
 
!FLZ112-006-005-002-011-150400   
..FLORIDA PANHANDLE
 
 
 
CITY SKY/WX TMP DP RH WIND PRES REMARKS
 
MARIANNA CLEAR 76 74 93 CALM 29.97R  
BONIFAY NOT AVBL  
PANAMA CITY NW FAIR 78 75 90 CALM 29.97R  
TYNDALL AFB PTCLDY 76 73 90 CALM 29.97R  
TYND DRONE APT FAIR 78 73 86 CALM 29.94R  
DE FUNIAK SPR FAIR 75 73 93 CALM 29.98S  
EGLIN AFB CLEAR 80 76 87 CALM 29.94S  
DESTIN CLEAR 81 76 84 CALM 29.96S  
HURLBURT CLEAR 81 75 82 CALM 29.95R  
CRESTVIEW CLEAR 77 76 96 CALM 29.98R  
PENSACOLA CLEAR 80 76 87 MISG 29.96R  

 
 
!ALZ063-066-150400   
..SOUTH ALABAMA
 
 
 
CITY SKY/WX TMP DP RH WIND PRES REMARKS
 
DOTHAN CLEAR 75 72 90 CALM 30.02R  
OZARK CAIRNS CLEAR 77 69 75 CALM 29.97R  
FT RUCKER HELI LGT RAIN 72 72 100 CALM 29.97R  
RUCKER HELI 3 FAIR 77 69 77 CALM 29.97R  
RUCKER HELI 2 FAIR 74 73 95 CALM 29.95R  
FLORALA APT CLEAR 79 72 79 CALM 29.99R  
ANDALUSIA CLEAR 80 72 76 CALM 29.97R  
TROY CLEAR 75 71 87 CALM 29.98S  
EUFALA FAIR 73 71 93 CALM 29.98F  
MOBILE PTCLDY 79 74 84 CALM 29.96S  

 
 
!GAZ120>161-150400   
..SOUTHWEST AND SOUTH CENTRAL GEORGIA
 
 
 
CITY SKY/WX TMP DP RH WIND PRES REMARKS
 
THOMASVILLE FAIR 72 68 88 CALM 29.99S  
BAINBRIDGE CLEAR 75 69 81 CALM 29.99R  
MOODY AFB CLEAR 74 69 82 CALM 29.96S  
VALDOSTA MOCLDY 74 71 91 CALM 29.98R  
MOULTRIE CLEAR 73 68 83 CALM 30.00R  
BLAKELY CLEAR 70 66 88 CALM 29.99R  
ALBANY CLEAR 76 70 82 CALM 30.00R  
TIFTON N/A 72 69 92 CALM 29.99R FOG  
FITZGERALD FAIR 72 70 93 CALM 30.00R  
CORDELE FAIR 74 68 83 CALM 30.00S  
AMERICUS NOT AVBL  
HOMERVILLE FAIR 76 65 68 E6 30.00R  

 
 
!GMZ750-755-770-775-150400   
..COASTAL AND BUOY OBS
 
 
 
STATION/POSITION TIME TEMP WIND PRES VSBY WAVE
 
AIR SEA DIR/SP/G HT/PER  
(UTC) (F) (DEG/KT/KT) (MB) (MI) (FT/S)  
KEATON BEACH 0300 79 40/ 2/ 3 1014.8R  
CEDAR KEY 0300 79 60/ 8/ 9 1015.4R  
C TOWER 0300 81 1015.3R  
APALACHICOLA BUO 0300 83 85 20/ 6/ 8 1013.6  
PANAMA CITY BUOY 0300 83 10/ 8/ 10 1015.1  
MOBILE BUOY 0300 84 250/ 4/ 6 1015.1  
ORANGE BCH AL BU 0300 84 200/ 2/ 4 1014.1  

 
 
 
CLICK HERE TO GO TO PREVIOUS BULLETINS.

The Nexlab FL Page
The Nexlab GA Page
The Nexlab AL Page Main Text Page